Time,TemperatureF,DewpointF,PressureIn,WindDirection,WindDirectionDegrees,WindSpeedMPH,WindSpeedGustMPH,Humidity,HourlyPrecipIn,Conditions,Clouds,dailyrainin,SoftwareType,DateUTC
2013-02-17 00:01:00,78.0,-99.9,30.04,SE,129,8.0,10.0,-999,-99.99,,,-99.99,,2013-02-17 04:01:00,
2013-02-17 00:11:00,77.0,-99.9,30.04,ESE,118,7.0,9.0,-999,-99.99,,,-99.99,,2013-02-17 04:11:00,
2013-02-17 00:21:00,78.0,-99.9,30.04,ESE,121,9.0,10.0,-999,-99.99,,,-99.99,,2013-02-17 04:21:00,
2013-02-17 00:32:00,77.0,-99.9,30.04,ESE,112,7.0,10.0,-999,-99.99,,,-99.99,,2013-02-17 04:32:00,
2013-02-17 00:42:00,78.0,-99.9,30.04,SE,125,9.0,11.0,-999,-99.99,,,-99.99,,2013-02-17 04:42:00,
2013-02-17 00:52:00,78.0,-99.9,30.03,ESE,120,8.0,9.0,-999,-99.99,,,-99.99,,2013-02-17 04:52:00,
2013-02-17 01:02:00,77.0,-99.9,30.03,ESE,121,8.0,9.0,-999,-99.99,,,-99.99,,2013-02-17 05:02:00,
2013-02-17 01:12:00,77.0,-99.9,30.03,SE,129,8.0,9.0,-999,-99.99,,,-99.99,,2013-02-17 05:12:00,
2013-02-17 01:22:00,77.0,-99.9,30.03,SE,134,5.0,6.0,-999,-99.99,,,-99.99,,2013-02-17 05:22:00,
2013-02-17 01:33:00,77.0,-99.9,30.03,SE,140,4.0,6.0,-999,-99.99,,,-99.99,,2013-02-17 05:33:00,
2013-02-17 01:42:00,77.0,-99.9,30.02,SE,134,4.0,7.0,-999,-99.99,,,-99.99,,2013-02-17 05:42:00,
2013-02-17 01:52:00,76.0,-99.9,30.02,SSE,157,5.0,7.0,-999,-99.99,,,-99.99,,2013-02-17 05:52:00,
2013-02-17 02:02:00,76.0,-99.9,30.02,South,178,4.0,5.0,-999,-99.99,,,-99.99,,2013-02-17 06:02:00,
2013-02-17 02:11:00,76.0,-99.9,30.02,South,173,4.0,4.0,-999,-99.99,,,-99.99,,2013-02-17 06:11:00,
2013-02-17 02:21:00,76.0,-99.9,30.01,SSE,163,3.0,5.0,-999,-99.99,,,-99.99,,2013-02-17 06:21:00,
2013-02-17 02:32:00,76.0,-99.9,30.01,SSE,157,3.0,4.0,-999,-99.99,,,-99.99,,2013-02-17 06:32:00,
2013-02-17 02:42:00,76.0,-99.9,30.01,SE,135,5.0,6.0,-999,-99.99,,,-99.99,,2013-02-17 06:42:00,
2013-02-17 02:52:00,76.0,-99.9,30.01,SE,144,6.0,6.0,-999,-99.99,,,-99.99,,2013-02-17 06:52:00,
2013-02-17 03:01:00,76.0,-99.9,30.01,SE,137,4.0,6.0,-999,-99.99,,,-99.99,,2013-02-17 07:01:00,
2013-02-17 03:11:00,76.0,-99.9,30.00,SE,139,4.0,5.0,-999,-99.99,,,-99.99,,2013-02-17 07:11:00,
2013-02-17 03:21:00,76.0,-99.9,30.00,SE,129,4.0,5.0,-999,-99.99,,,-99.99,,2013-02-17 07:21:00,
2013-02-17 03:32:00,76.0,-99.9,30.00,SE,129,6.0,7.0,-999,-99.99,,,-99.99,,2013-02-17 07:32:00,
2013-02-17 03:42:00,76.0,-99.9,30.00,SE,146,5.0,6.0,-999,-99.99,,,-99.99,,2013-02-17 07:42:00,
2013-02-17 03:52:00,77.0,-99.9,30.00,SE,130,4.0,7.0,-999,-99.99,,,-99.99,,2013-02-17 07:52:00,
2013-02-17 04:01:00,76.0,-99.9,30.00,SE,128,5.0,6.0,-999,-99.99,,,-99.99,,2013-02-17 08:01:00,
2013-02-17 04:11:00,76.0,-99.9,30.00,SE,128,6.0,7.0,-999,-99.99,,,-99.99,,2013-02-17 08:11:00,
2013-02-17 04:22:00,76.0,-99.9,29.99,SE,140,6.0,6.0,-999,-99.99,,,-99.99,,2013-02-17 08:22:00,
2013-02-17 04:32:00,76.0,-99.9,29.99,SE,146,5.0,6.0,-999,-99.99,,,-99.99,,2013-02-17 08:32:00,
2013-02-17 04:42:00,76.0,-99.9,29.99,SSE,149,4.0,6.0,-999,-99.99,,,-99.99,,2013-02-17 08:42:00,
2013-02-17 04:52:00,76.0,-99.9,30.00,SSE,154,4.0,6.0,-999,-99.99,,,-99.99,,2013-02-17 08:52:00,
2013-02-17 05:02:00,75.0,-99.9,30.00,WSW,250,6.0,7.0,-999,-99.99,,,-99.99,,2013-02-17 09:02:00,
2013-02-17 05:11:00,75.0,-99.9,30.00,WSW,245,5.0,6.0,-999,-99.99,,,-99.99,,2013-02-17 09:11:00,
2013-02-17 05:21:00,74.0,-99.9,30.00,SW,232,4.0,5.0,-999,-99.99,,,-99.99,,2013-02-17 09:21:00,
2013-02-17 05:32:00,74.0,-99.9,30.00,SW,234,3.0,4.0,-999,-99.99,,,-99.99,,2013-02-17 09:32:00,
2013-02-17 05:42:00,74.0,-99.9,30.00,South,184,2.0,3.0,-999,-99.99,,,-99.99,,2013-02-17 09:42:00,
2013-02-17 05:52:00,75.0,-99.9,30.01,South,176,3.0,4.0,-999,-99.99,,,-99.99,,2013-02-17 09:52:00,
2013-02-17 06:01:00,75.0,-99.9,30.01,SE,143,3.0,4.0,-999,-99.99,,,-99.99,,2013-02-17 10:01:00,
2013-02-17 06:11:00,75.0,-99.9,30.01,ESE,122,4.0,5.0,-999,-99.99,,,-99.99,,2013-02-17 10:11:00,
2013-02-17 06:22:00,76.0,-99.9,30.01,ESE,119,4.0,5.0,-999,-99.99,,,-99.99,,2013-02-17 10:22:00,
2013-02-17 06:32:00,75.0,-99.9,30.01,SE,126,4.0,5.0,-999,-99.99,,,-99.99,,2013-02-17 10:32:00,
2013-02-17 06:42:00,75.0,-99.9,30.02,SE,137,4.0,5.0,-999,-99.99,,,-99.99,,2013-02-17 10:42:00,
2013-02-17 06:52:00,76.0,-99.9,30.02,ESE,118,3.0,4.0,-999,-99.99,,,-99.99,,2013-02-17 10:52:00,
2013-02-17 07:01:00,76.0,-99.9,30.03,ESE,122,3.0,4.0,-999,-99.99,,,-99.99,,2013-02-17 11:01:00,
2013-02-17 07:11:00,75.0,-99.9,30.03,SE,132,4.0,5.0,-999,-99.99,,,-99.99,,2013-02-17 11:11:00,
2013-02-17 07:22:00,75.0,-99.9,30.03,SE,131,5.0,7.0,-999,-99.99,,,-99.99,,2013-02-17 11:22:00,
2013-02-17 07:32:00,76.0,-99.9,30.03,SE,143,5.0,6.0,-999,-99.99,,,-99.99,,2013-02-17 11:32:00,
2013-02-17 07:42:00,76.0,-99.9,30.04,SE,139,5.0,6.0,-999,-99.99,,,-99.99,,2013-02-17 11:42:00,
2013-02-17 07:53:00,76.0,-99.9,30.04,ESE,122,5.0,6.0,-999,-99.99,,,-99.99,,2013-02-17 11:53:00,
2013-02-17 08:03:00,76.0,-99.9,30.04,ESE,114,6.0,7.0,-999,-99.99,,,-99.99,,2013-02-17 12:03:00,
2013-02-17 08:11:00,76.0,-99.9,30.05,SE,136,6.0,7.0,-999,-99.99,,,-99.99,,2013-02-17 12:11:00,
2013-02-17 08:22:00,77.0,-99.9,30.05,SE,138,3.0,4.0,-999,-99.99,,,-99.99,,2013-02-17 12:22:00,
2013-02-17 08:32:00,77.0,-99.9,30.06,SE,126,6.0,7.0,-999,-99.99,,,-99.99,,2013-02-17 12:32:00,
2013-02-17 08:42:00,77.0,-99.9,30.06,SSE,147,6.0,6.0,-999,-99.99,,,-99.99,,2013-02-17 12:42:00,
2013-02-17 08:52:00,77.0,-99.9,30.07,SE,132,6.0,7.0,-999,-99.99,,,-99.99,,2013-02-17 12:52:00,
2013-02-17 09:02:00,77.0,-99.9,30.07,SE,130,6.0,8.0,-999,-99.99,,,-99.99,,2013-02-17 13:02:00,
2013-02-17 09:12:00,77.0,-99.9,30.07,SE,128,7.0,8.0,-999,-99.99,,,-99.99,,2013-02-17 13:12:00,
2013-02-17 09:22:00,78.0,-99.9,30.07,SE,127,9.0,10.0,-999,-99.99,,,-99.99,,2013-02-17 13:22:00,
2013-02-17 09:32:00,78.0,-99.9,30.07,SE,129,9.0,11.0,-999,-99.99,,,-99.99,,2013-02-17 13:32:00,
2013-02-17 09:42:00,78.0,-99.9,30.08,ESE,121,9.0,12.0,-999,-99.99,,,-99.99,,2013-02-17 13:42:00,
2013-02-17 09:52:00,78.0,-99.9,30.08,ESE,104,9.0,14.0,-999,-99.99,,,-99.99,,2013-02-17 13:52:00,
2013-02-17 10:01:00,79.0,-99.9,30.08,East,100,11.0,14.0,-999,-99.99,,,-99.99,,2013-02-17 14:01:00,
2013-02-17 10:11:00,79.0,-99.9,30.08,East,90,8.0,14.0,-999,-99.99,,,-99.99,,2013-02-17 14:11:00,
2013-02-17 10:22:00,79.0,-99.9,30.08,East,98,8.0,12.0,-999,-99.99,,,-99.99,,2013-02-17 14:22:00,
2013-02-17 10:32:00,79.0,-99.9,30.08,ESE,103,10.0,13.0,-999,-99.99,,,-99.99,,2013-02-17 14:32:00,
2013-02-17 10:42:00,79.0,-99.9,30.08,ESE,118,11.0,14.0,-999,-99.99,,,-99.99,,2013-02-17 14:42:00,
2013-02-17 10:53:00,79.0,-99.9,30.08,ESE,121,10.0,14.0,-999,-99.99,,,-99.99,,2013-02-17 14:53:00,
2013-02-17 11:02:00,77.0,-99.9,30.08,ENE,76,10.0,18.0,-999,-99.99,,,-99.99,,2013-02-17 15:02:00,
2013-02-17 11:11:00,77.0,-99.9,30.08,East,90,8.0,13.0,-999,-99.99,,,-99.99,,2013-02-17 15:11:00,
2013-02-17 11:22:00,79.0,-99.9,30.07,East,88,8.0,13.0,-999,-99.99,,,-99.99,,2013-02-17 15:22:00,
2013-02-17 11:32:00,80.0,-99.9,30.07,ENE,77,6.0,11.0,-999,-99.99,,,-99.99,,2013-02-17 15:32:00,
2013-02-17 11:42:00,78.0,-99.9,30.07,SE,141,23.0,27.0,-999,-99.99,,,-99.99,,2013-02-17 15:42:00,
2013-02-17 11:52:00,77.0,-99.9,30.07,SSE,153,15.0,19.0,-999,-99.99,,,-99.99,,2013-02-17 15:52:00,
2013-02-17 12:02:00,78.0,-99.9,30.06,SE,126,8.0,10.0,-999,-99.99,,,-99.99,,2013-02-17 16:02:00,
2013-02-17 12:12:00,78.0,-99.9,30.06,SE,129,8.0,10.0,-999,-99.99,,,-99.99,,2013-02-17 16:12:00,
2013-02-17 12:22:00,80.0,-99.9,30.06,SE,137,5.0,9.0,-999,-99.99,,,-99.99,,2013-02-17 16:22:00,
2013-02-17 12:32:00,80.0,-99.9,30.05,SE,125,4.0,6.0,-999,-99.99,,,-99.99,,2013-02-17 16:32:00,
2013-02-17 12:42:00,81.0,-99.9,30.05,ESE,123,6.0,11.0,-999,-99.99,,,-99.99,,2013-02-17 16:42:00,
2013-02-17 12:52:00,82.0,-99.9,30.04,ENE,57,8.0,11.0,-999,-99.99,,,-99.99,,2013-02-17 16:52:00,
2013-02-17 13:02:00,82.0,-99.9,30.04,ENE,60,9.0,11.0,-999,-99.99,,,-99.99,,2013-02-17 17:02:00,
2013-02-17 13:11:00,81.0,-99.9,30.03,ENE,62,10.0,14.0,-999,-99.99,,,-99.99,,2013-02-17 17:11:00,
2013-02-17 13:22:00,81.0,-99.9,30.03,East,82,9.0,16.0,-999,-99.99,,,-99.99,,2013-02-17 17:22:00,
2013-02-17 13:32:00,80.0,-99.9,30.03,ENE,72,10.0,15.0,-999,-99.99,,,-99.99,,2013-02-17 17:32:00,
2013-02-17 13:42:00,80.0,-99.9,30.03,ENE,72,10.0,15.0,-999,-99.99,,,-99.99,,2013-02-17 17:42:00,
2013-02-17 13:53:00,80.0,-99.9,30.02,East,81,11.0,17.0,-999,-99.99,,,-99.99,,2013-02-17 17:53:00,
2013-02-17 14:02:00,80.0,-99.9,30.01,ENE,70,9.0,19.0,-999,-99.99,,,-99.99,,2013-02-17 18:02:00,
2013-02-17 14:11:00,80.0,-99.9,30.01,ENE,69,10.0,14.0,-999,-99.99,,,-99.99,,2013-02-17 18:11:00,
2013-02-17 14:22:00,80.0,-99.9,30.00,ENE,70,10.0,21.0,-999,-99.99,,,-99.99,,2013-02-17 18:22:00,
2013-02-17 14:33:00,80.0,-99.9,30.00,East,82,11.0,17.0,-999,-99.99,,,-99.99,,2013-02-17 18:33:00,
2013-02-17 14:42:00,80.0,-99.9,30.00,ENE,69,11.0,15.0,-999,-99.99,,,-99.99,,2013-02-17 18:42:00,
2013-02-17 14:52:00,80.0,-99.9,29.99,ENE,77,11.0,17.0,-999,-99.99,,,-99.99,,2013-02-17 18:52:00,
2013-02-17 15:02:00,80.0,-99.9,29.99,East,80,9.0,19.0,-999,-99.99,,,-99.99,,2013-02-17 19:02:00,
2013-02-17 15:11:00,80.0,-99.9,29.99,ENE,68,11.0,18.0,-999,-99.99,,,-99.99,,2013-02-17 19:11:00,
2013-02-17 15:22:00,80.0,-99.9,29.98,ENE,73,11.0,16.0,-999,-99.99,,,-99.99,,2013-02-17 19:22:00,
2013-02-17 15:32:00,80.0,-99.9,29.98,ENE,66,11.0,19.0,-999,-99.99,,,-99.99,,2013-02-17 19:32:00,
2013-02-17 15:42:00,80.0,-99.9,29.98,East,87,14.0,23.0,-999,-99.99,,,-99.99,,2013-02-17 19:42:00,
2013-02-17 15:52:00,80.0,-99.9,29.98,ENE,77,9.0,15.0,-999,-99.99,,,-99.99,,2013-02-17 19:52:00,
2013-02-17 16:02:00,80.0,-99.9,29.98,ENE,68,9.0,19.0,-999,-99.99,,,-99.99,,2013-02-17 20:02:00,
2013-02-17 16:11:00,80.0,-99.9,29.98,East,79,12.0,19.0,-999,-99.99,,,-99.99,,2013-02-17 20:11:00,
2013-02-17 16:22:00,80.0,-99.9,29.98,ENE,62,12.0,21.0,-999,-99.99,,,-99.99,,2013-02-17 20:22:00,
2013-02-17 16:32:00,80.0,-99.9,29.98,ENE,64,10.0,15.0,-999,-99.99,,,-99.99,,2013-02-17 20:32:00,
2013-02-17 16:43:00,80.0,-99.9,29.98,ENE,66,12.0,18.0,-999,-99.99,,,-99.99,,2013-02-17 20:43:00,
2013-02-17 16:52:00,80.0,-99.9,29.98,ENE,73,8.0,17.0,-999,-99.99,,,-99.99,,2013-02-17 20:52:00,
2013-02-17 17:02:00,80.0,-99.9,29.98,ENE,68,9.0,16.0,-999,-99.99,,,-99.99,,2013-02-17 21:02:00,
2013-02-17 17:11:00,80.0,-99.9,29.98,ENE,77,8.0,15.0,-999,-99.99,,,-99.99,,2013-02-17 21:11:00,
2013-02-17 17:22:00,80.0,-99.9,29.98,East,99,12.0,15.0,-999,-99.99,,,-99.99,,2013-02-17 21:22:00,
2013-02-17 17:32:00,80.0,-99.9,29.99,East,95,11.0,17.0,-999,-99.99,,,-99.99,,2013-02-17 21:32:00,
2013-02-17 17:42:00,80.0,-99.9,29.99,ENE,73,9.0,16.0,-999,-99.99,,,-99.99,,2013-02-17 21:42:00,
2013-02-17 17:53:00,79.0,-99.9,29.99,East,83,11.0,17.0,-999,-99.99,,,-99.99,,2013-02-17 21:53:00,
2013-02-17 18:01:00,79.0,-99.9,29.99,East,94,10.0,14.0,-999,-99.99,,,-99.99,,2013-02-17 22:01:00,
2013-02-17 18:12:00,79.0,-99.9,29.99,East,91,12.0,17.0,-999,-99.99,,,-99.99,,2013-02-17 22:12:00,
2013-02-17 18:22:00,79.0,-99.9,29.99,East,84,7.0,15.0,-999,-99.99,,,-99.99,,2013-02-17 22:22:00,
2013-02-17 18:32:00,79.0,-99.9,29.99,East,99,14.0,17.0,-999,-99.99,,,-99.99,,2013-02-17 22:32:00,
2013-02-17 18:42:00,79.0,-99.9,29.99,East,87,12.0,18.0,-999,-99.99,,,-99.99,,2013-02-17 22:42:00,
2013-02-17 18:52:00,78.0,-99.9,30.00,East,92,11.0,16.0,-999,-99.99,,,-99.99,,2013-02-17 22:52:00,
2013-02-17 19:02:00,79.0,-99.9,30.00,East,101,13.0,15.0,-999,-99.99,,,-99.99,,2013-02-17 23:02:00,
2013-02-17 19:11:00,79.0,-99.9,30.01,ESE,105,11.0,17.0,-999,-99.99,,,-99.99,,2013-02-17 23:11:00,
2013-02-17 19:22:00,79.0,-99.9,30.01,ESE,106,14.0,17.0,-999,-99.99,,,-99.99,,2013-02-17 23:22:00,
2013-02-17 19:32:00,79.0,-99.9,30.01,ESE,107,11.0,14.0,-999,-99.99,,,-99.99,,2013-02-17 23:32:00,
2013-02-17 19:42:00,79.0,-99.9,30.01,ESE,106,11.0,15.0,-999,-99.99,,,-99.99,,2013-02-17 23:42:00,
2013-02-17 19:52:00,79.0,-99.9,30.01,ESE,104,9.0,13.0,-999,-99.99,,,-99.99,,2013-02-17 23:52:00,
2013-02-17 20:02:00,79.0,-99.9,30.01,ESE,108,9.0,13.0,-999,-99.99,,,-99.99,,2013-02-18 00:02:00,
2013-02-17 20:12:00,79.0,-99.9,30.02,ESE,105,12.0,15.0,-999,-99.99,,,-99.99,,2013-02-18 00:12:00,
2013-02-17 20:22:00,79.0,-99.9,30.03,ESE,114,12.0,15.0,-999,-99.99,,,-99.99,,2013-02-18 00:22:00,
2013-02-17 20:32:00,79.0,-99.9,30.03,ESE,114,10.0,13.0,-999,-99.99,,,-99.99,,2013-02-18 00:32:00,
2013-02-17 20:42:00,79.0,-99.9,30.03,ESE,112,10.0,12.0,-999,-99.99,,,-99.99,,2013-02-18 00:42:00,
2013-02-17 20:52:00,78.0,-99.9,30.04,ESE,110,11.0,15.0,-999,-99.99,,,-99.99,,2013-02-18 00:52:00,
2013-02-17 21:01:00,79.0,-99.9,30.04,ESE,110,12.0,14.0,-999,-99.99,,,-99.99,,2013-02-18 01:01:00,
2013-02-17 21:12:00,78.0,-99.9,30.04,ESE,120,12.0,16.0,-999,-99.99,,,-99.99,,2013-02-18 01:12:00,
2013-02-17 21:22:00,78.0,-99.9,30.05,ESE,119,12.0,14.0,-999,-99.99,,,-99.99,,2013-02-18 01:22:00,
2013-02-17 21:32:00,78.0,-99.9,30.05,ESE,115,11.0,15.0,-999,-99.99,,,-99.99,,2013-02-18 01:32:00,
2013-02-17 21:42:00,78.0,-99.9,30.05,ESE,119,9.0,15.0,-999,-99.99,,,-99.99,,2013-02-18 01:42:00,
2013-02-17 21:52:00,78.0,-99.9,30.05,ESE,120,11.0,13.0,-999,-99.99,,,-99.99,,2013-02-18 01:52:00,
2013-02-17 22:02:00,78.0,-99.9,30.05,ESE,123,11.0,13.0,-999,-99.99,,,-99.99,,2013-02-18 02:02:00,
2013-02-17 22:11:00,78.0,-99.9,30.06,ESE,116,9.0,10.0,-999,-99.99,,,-99.99,,2013-02-18 02:11:00,
2013-02-17 22:22:00,78.0,-99.9,30.05,ESE,123,9.0,10.0,-999,-99.99,,,-99.99,,2013-02-18 02:22:00,
2013-02-17 22:32:00,78.0,-99.9,30.06,ESE,117,9.0,11.0,-999,-99.99,,,-99.99,,2013-02-18 02:32:00,
2013-02-17 22:42:00,77.0,-99.9,30.06,SE,126,11.0,12.0,-999,-99.99,,,-99.99,,2013-02-18 02:42:00,
2013-02-17 22:52:00,77.0,-99.9,30.06,ESE,119,10.0,13.0,-999,-99.99,,,-99.99,,2013-02-18 02:52:00,
2013-02-17 23:02:00,77.0,-99.9,30.06,ESE,122,11.0,12.0,-999,-99.99,,,-99.99,,2013-02-18 03:02:00,
2013-02-17 23:12:00,77.0,-99.9,30.06,SE,125,11.0,13.0,-999,-99.99,,,-99.99,,2013-02-18 03:12:00,
2013-02-17 23:22:00,77.0,-99.9,30.06,ESE,120,7.0,9.0,-999,-99.99,,,-99.99,,2013-02-18 03:22:00,
2013-02-17 23:32:00,77.0,-99.9,30.06,ESE,117,7.0,10.0,-999,-99.99,,,-99.99,,2013-02-18 03:32:00,
2013-02-17 23:42:00,77.0,-99.9,30.06,ESE,122,7.0,9.0,-999,-99.99,,,-99.99,,2013-02-18 03:42:00,
2013-02-17 23:52:00,77.0,-99.9,30.06,SE,129,9.0,11.0,-999,-99.99,,,-99.99,,2013-02-18 03:52:00,